This demonstration page uses our WeatherBlox Daily Observations layout. Learn more.

Left ArrowRight Arrow

Hourly Observations for July 2, 2018

Temp ( °F °C ) Dew Point ( °F °C ) Humidity (%) Winds ( mph kmh ) Pressure ( in mb ) Visibility ( mi km ) Precip ( " mm )
12:59 am 00:59 Clear 81 27.2 73 22.8 77 77 SSW 8 13 30.07 1018 10 16 0.00 0.00
1:59 am 01:59 Clear 80 26.7 73 22.8 79 79 SSW 6 9 30.07 1018 10 16 0.00 0.00
2:59 am 02:59 Clear 79 26.1 73 22.8 82 82 SW 6 9 30.07 1018 9 14 0.00 0.00
3:59 am 03:59 Mostly Clear 79 26.1 73 22.8 82 82 WSW 7 11 30.07 1018 9 14 0.00 0.00
4:59 am 04:59 Partly Cloudy 78 25.6 73 22.8 85 85 WSW 3 6 30.07 1018 9 14 0.00 0.00
5:59 am 05:59 Partly Cloudy 76 24.4 73 22.8 91 91 SW 3 6 30.07 1018 7 11 0.00 0.00
6:59 am 06:59 Partly Cloudy 79 26.1 74 23.3 85 85 SW 3 6 30.08 1019 7 11 0.00 0.00
7:59 am 07:59 Mostly Sunny 81 27.2 75 23.9 82 82 W 5 7 30.09 1019 8 13 0.00 0.00
8:59 am 08:59 Mostly Sunny 84 28.9 75 23.9 74 74 W 6 9 30.10 1019 8 13 0.00 0.00
9:59 am 09:59 Mostly Sunny 87 30.6 75 23.9 67 67 VRB 3 6 30.09 1019 9 14 0.00 0.00
10:59 am 10:59 Mostly Cloudy 91 32.8 72 22.2 54 54 Calm 30.09 1019 10 16 0.00 0.00
11:59 am 11:59 Mostly Cloudy 92 33.3 72 22.2 52 52 N 7 11 30.09 1019 10 16 0.00 0.00
12:59 pm 12:59 Partly Cloudy 93 33.9 73 22.8 52 52 ENE 7 11 30.08 1019 9 14 0.00 0.00
1:59 pm 13:59 Partly Cloudy 92 33.3 73 22.8 54 54 ENE 9 15 30.08 1019 9 14 0.00 0.00
2:59 pm 14:59 Mostly Cloudy 91 32.8 72 22.2 54 54 E 8 13 30.08 1019 9 14 0.00 0.00
3:59 pm 15:59 Sunny 93 33.9 73 22.8 52 52 E 9 15 30.07 1018 9 14 0.00 0.00
4:59 pm 16:59 Partly Cloudy 92 33.3 73 22.8 54 54 E 7 11 30.06 1018 9 14 0.00 0.00
5:59 pm 17:59 Partly Cloudy 91 32.8 72 22.2 54 54 SE 8 13 30.05 1018 9 14 0.00 0.00
6:59 pm 18:59 Mostly Sunny 90 32.2 74 23.3 59 59 SE 6 9 30.05 1018 9 14 0.00 0.00
7:59 pm 19:59 Mostly Sunny 87 30.6 73 22.8 63 63 SSE 3 6 30.06 1018 8 13 0.00 0.00
8:59 pm 20:59 Mostly Clear 85 29.4 73 22.8 68 68 SE 5 7 30.06 1018 10 16 0.00 0.00
9:59 pm 21:59 Mostly Clear 84 28.9 74 23.3 72 72 SSE 5 7 30.09 1019 10 16 0.00 0.00
10:59 pm 22:59 Mostly Clear 82 27.8 74 23.3 77 77 SSE 6 9 30.10 1019 10 16 0.00 0.00
11:59 pm 23:59 Clear 81 27.2 74 23.3 79 79 S 5 7 30.11 1020 9 14 0.00 0.00

Powered by AerisWeather